Simultaneous Nadir Overpasses (SNOs) Predictions

Prediction of SNOs between GOES-16 and METOP-C Satellite Orbit:

Table of predicted SNOs for the next 14.0 days since TLE Epoch: 2/14/2025
Index Date Time (GOES-16) GOES-16 Lat,Lon METOP-C Lat,Lon Distance(km) Time Diff (sec)
1 02/16/2025 02:36:55 -0.02, -75.18 -0.25, -76.09 104.68 80
2 02/17/2025 02:13:35 -0.02, -75.18 0.90, -71.10 465.21 80
3 02/18/2025 14:32:26 0.02, -75.23 0.11, -75.66 48.65 80
4 02/21/2025 02:33:25 -0.02, -75.22 -0.01, -75.26 5.05 80
5 02/23/2025 14:31:35 0.01, -75.28 -0.10, -74.82 51.99 80
6 02/25/2025 02:50:35 -0.00, -75.26 -0.93, -79.42 473.43 80
7 02/26/2025 02:27:14 -0.00, -75.27 0.18, -74.42 97.30 80
8 02/27/2025 14:46:04 0.00, -75.33 0.80, -78.98 415.72 80
9 02/28/2025 14:28:04 0.00, -75.35 -0.31, -73.98 155.72 80
